Change the Weather History Date:

Saturday, November 24, 2012

  Actual Average Record
Temperature  
Mean Temperature 62 °F -  
Max Temperature 68 °F 57 °F 72 °F (2014)
Min Temperature 56 °F 48 °F 41 °F (2005)
Degree Days  
Heating Degree Days 3    
Growing Degree Days 12 (Base 50)    
Moisture  
Dew Point 58 °F    
Average Humidity 85    
Maximum Humidity 94    
Minimum Humidity 71    
Precipitation  
Precipitation 0.00 in 0.10 in - ()
Sea Level Pressure  
Sea Level Pressure 30.14 in    
Wind  
Wind Speed 6 mph ()    
Max Wind Speed 13 mph    
Max Gust Speed -    
Visibility 6.6 miles    
Events      
Averages and records for this station are not official NWS values.
T = Trace of Precipitation, MM = Missing Value Source: Averaged Metar Reports

Daily Weather History Graph

Daily Weather History Graph

Search for Another Location

Airport or City:

Trip Planner

Search our weather history database for the weather conditions in past years. The results will help you decide how hot, cold, wet, or windy it might be!

Date:

Astronomy

Nov. 24, 2012 Rise Set
Actual Time 7:38 AM CET 5:21 PM CET
Civil Twilight 7:08 AM CET 5:50 PM CET
Nautical Twilight 6:35 AM CET 6:23 PM CET
Astronomical Twilight 6:03 AM CET 6:56 PM CET
Moon 2:57 PM CET (11/24) 3:40 AM CET (11/24)
Length of Visible Light 10h 42m
Length of Day
9h 42m
Waxing Gibbous, 85% of the Moon is Illuminated
Nov 24
Waxing Gibbous
Nov 28
Full
Dec 6
Last Quarter
Dec 13
New
Dec 20
First Quarter

Hourly Weather History & Observations

Time (CET) Temp. Dew Point Humidity Pressure Visibility Wind Dir Wind Speed Gust Speed Precip Events Conditions
1:00 AM 59 °F 57 °F 89% 30.20 in 11 mi SSE 6.9 mph - -   Partly Cloudy
1:00 AM 59.0 °F 57.2 °F 94% 30.18 in 6.2 mi SSE 5.8 mph - N/A   Scattered Clouds
4:00 AM 59.0 °F 55.4 °F 88% 30.15 in 6.2 mi Variable 2.3 mph - N/A   Partly Cloudy
5:00 AM 59.0 °F 55.4 °F 88% 30.15 in 6.2 mi South 4.6 mph - N/A   Partly Cloudy
5:30 AM 60.8 °F 57.2 °F 88% 30.15 in 6.2 mi South 4.6 mph - N/A   Mostly Cloudy
6:00 AM 59.0 °F 55.4 °F 88% 30.15 in 6.2 mi South 6.9 mph - N/A   Partly Cloudy
6:30 AM 59.0 °F 55.4 °F 88% 30.15 in 6.2 mi SSE 6.9 mph - N/A   Partly Cloudy
7:00 AM 59 °F 56 °F 85% 30.16 in 11 mi SSE 5.8 mph - -   Scattered Clouds
7:00 AM 59.0 °F 55.4 °F 88% 30.15 in 6.2 mi SSE 6.9 mph - N/A   Partly Cloudy
7:30 AM 59.0 °F 55.4 °F 88% 30.15 in 6.2 mi SSE 3.5 mph - N/A   Partly Cloudy
8:00 AM 59.0 °F 57.2 °F 94% 30.15 in 6.2 mi Variable 2.3 mph - N/A   Scattered Clouds
8:30 AM 62.6 °F 59.0 °F 88% 30.15 in 6.2 mi SSE 3.5 mph - N/A   Scattered Clouds
9:00 AM 62.6 °F 59.0 °F 88% 30.15 in 6.2 mi SSE 6.9 mph - N/A   Scattered Clouds
9:30 AM 64.4 °F 59.0 °F 83% 30.15 in 6.2 mi South 8.1 mph - N/A   Scattered Clouds
10:00 AM 64.4 °F 59.0 °F 83% 30.15 in 6.2 mi SSE 9.2 mph - N/A   Scattered Clouds
10:30 AM 66.2 °F 59.0 °F 78% 30.18 in 6.2 mi SSE 10.4 mph - N/A   Scattered Clouds
11:00 AM 64.4 °F 60.8 °F 88% 30.18 in 6.2 mi SSE 9.2 mph - N/A   Scattered Clouds
11:30 AM 66.2 °F 59.0 °F 78% 30.15 in 6.2 mi SSE 11.5 mph - N/A   Scattered Clouds
12:00 PM 66.2 °F 59.0 °F 78% 30.15 in 6.2 mi SSE 10.4 mph - N/A   Scattered Clouds
12:30 PM 68.0 °F 59.0 °F 73% 30.15 in 6.2 mi SSE 10.4 mph - N/A   Scattered Clouds
1:00 PM 67 °F 60 °F 71% 30.15 in 12 mi SSE 10.4 mph - -   Mostly Cloudy
1:00 PM 66.2 °F 59.0 °F 78% 30.15 in 6.2 mi South 9.2 mph - N/A   Scattered Clouds
1:30 PM 68.0 °F 60.8 °F 78% 30.12 in 6.2 mi SSE 9.2 mph - N/A   Mostly Cloudy
2:00 PM 66.2 °F 60.8 °F 83% 30.12 in 6.2 mi SSE 10.4 mph - N/A   Scattered Clouds
2:30 PM 66.2 °F 59.0 °F 78% 30.12 in 6.2 mi SSE 11.5 mph - N/A   Scattered Clouds
3:00 PM 66.2 °F 59.0 °F 78% 30.12 in 6.2 mi SSE 12.7 mph - N/A   Scattered Clouds
3:30 PM 66.2 °F 60.8 °F 83% 30.09 in 6.2 mi SSE 11.5 mph - N/A   Scattered Clouds
4:00 PM 64.4 °F 60.8 °F 88% 30.12 in 6.2 mi South 9.2 mph - N/A   Scattered Clouds
4:30 PM 64.4 °F 59.0 °F 83% 30.09 in 6.2 mi SSE 10.4 mph - N/A   Scattered Clouds
5:00 PM 64.4 °F 60.8 °F 88% 30.09 in 6.2 mi SSE 9.2 mph - N/A   Scattered Clouds
5:30 PM 64.4 °F 60.8 °F 88% 30.09 in 6.2 mi South 9.2 mph - N/A   Scattered Clouds
6:00 PM 62.6 °F 59.0 °F 88% 30.12 in 6.2 mi South 8.1 mph - N/A   Scattered Clouds
6:30 PM 62.6 °F 59.0 °F 88% 30.12 in 6.2 mi South 4.6 mph - N/A   Scattered Clouds
7:00 PM 62 °F 58 °F 81% 30.14 in 7 mi South 4.6 mph - -   Partly Cloudy
7:00 PM 60.8 °F 57.2 °F 88% 30.12 in 6.2 mi South 4.6 mph - N/A   Scattered Clouds
7:30 PM 60.8 °F 57.2 °F 88% 30.12 in 6.2 mi South 5.8 mph - N/A   Partly Cloudy
8:00 PM 60.8 °F 59.0 °F 94% 30.12 in 6.2 mi Variable 2.3 mph - N/A   Scattered Clouds
8:30 PM 60.8 °F 57.2 °F 88% 30.12 in 6.2 mi South 3.5 mph - N/A   Scattered Clouds
9:00 PM 60.8 °F 57.2 °F 88% 30.12 in 6.2 mi South 4.6 mph - N/A   Partly Cloudy
9:30 PM 60.8 °F 57.2 °F 88% 30.12 in 6.2 mi South 5.8 mph - N/A   Partly Cloudy
10:00 PM 60.8 °F 57.2 °F 88% 30.12 in 6.2 mi South 5.8 mph - N/A   Partly Cloudy